• MPC Preparation (Info)

  • MPEC 2016-G100: 2016 GF134

    The following Minor Planet Electronic Circular may be linked-to from your own Web pages, but must not otherwise be redistributed electronically.

    A form allowing access to any MPEC is at the bottom of this page.


    Read MPEC 2016-G99 Read MPEC 2016-G101


    M.P.E.C. 2016-G100                               Issued 2016 Apr. 6, 23:29 UT
    
         The Minor Planet Electronic Circulars contain information on unusual
             minor planets and routine data on comets.  They are published
        on behalf of Division F of the International Astronomical Union by the
              Minor Planet Center, Smithsonian Astrophysical Observatory,
                              Cambridge, MA 02138, U.S.A.
    
                 Prepared using the Tamkin Foundation Computer Network
    
                                  MPC@CFA.HARVARD.EDU
                URL https://www.minorplanetcenter.net/    ISSN 1523-6714
    
                                      2016 GF134
    
    Observations:
         K16GD4F* C2016 04 05.35906 11 15 17.235+02 17 00.62         20.7 wLEG100F51
         K16GD4F  C2016 04 05.40027 11 14 53.306+02 08 06.64         20.4 wLEG100F51
         K16GD4F KC2016 04 05.94076 11 09 58.50 +00 07 00.4                qEG100J95
         K16GD4F KC2016 04 05.94807 11 09 54.19 +00 05 19.9                qEG100J95
         K16GD4F KC2016 04 05.95649 11 09 49.20 +00 03 24.8          20.0 RqEG100J95
         K16GD4F KC2016 04 06.31835 11 06 19.78 -01 20 22.0          18.5 RoEG100291
         K16GD4F KC2016 04 06.32018 11 06 18.65 -01 20 48.2          18.9 RoEG100291
         K16GD4F KC2016 04 06.32204 11 06 17.50 -01 21 14.9          18.1 RoEG100291
         K16GD4F KC2016 04 06.95152 11 00 04.42 -03 55 22.7                qEG100J95
         K16GD4F KC2016 04 06.95478 11 00 02.33 -03 56 12.2                qEG100J95
         K16GD4F KC2016 04 06.96018 10 59 58.78 -03 57 34.1          20.1 RqEG100J95
    
    Observer details:
    291 LPL/Spacewatch II.  Observer T. H. Bressi.  1.8-m f/2.7 reflector + CCD.
    F51 Pan-STARRS 1, Haleakala.  Observers B. Gibson, T. Goggia, N. Primak,
        A. Schultz, M. Willman.  Measurers K. Chambers, S. Chastel, L. Denneau,
        H. Flewelling, M. Huber, E. Lilly, E. Magnier, R. Wainscoat, C. Waters,
        R. Weryk.  1.8-m Ritchey-Chretien + CCD.
    J95 Great Shefford.  Observer P. Birtwhistle.  0.40-m f/6.0 Schmidt-Cassegrain
        + CCD.
    
    Orbital elements:
    2016 GF134                                               Earth MOID = 0.0532 AU
    Epoch 2016 Jan. 13.0 TT = JDT 2457400.5                 MPC
    M 302.15479              (2000.0)            P               Q
    n   0.47073897     Peri.  225.52929     -0.52229123     +0.85032805
    a   1.6366254      Node    13.42128     -0.68216130     -0.37125165
    e   0.4027460      Incl.   16.12181     -0.51173024     -0.37298046
    P   2.09           H   24.8           G   0.15           U   5
    Residuals in seconds of arc
    160405 F51  0.0   0.0     160405 J95  0.1+  0.4+    160406 J95  0.0   0.6+
    160405 F51  0.1-  0.1+    160406 291  0.1-  0.4+    160406 J95  0.3+  0.1+
    160405 J95  0.5-  0.1+    160406 291  0.1-  0.2+    160406 J95  0.5-  0.5-
    160405 J95  0.1-  0.1-    160406 291  0.1-  0.1-
    
    Ephemeris:
    2016 GF134               a,e,i = 1.64, 0.40, 16                  q = 0.9775
    Date    TT    R. A. (2000) Decl.     Delta      r     Elong.  Phase     V
    2016 03 07    12 51 46.1 +31 56 26   0.2610  1.2142   144.4    28.4    23.6
    ...
    2016 03 22    12 29 01.1 +27 20 50   0.1537  1.1338   151.5    24.8    22.2
    ...
    2016 03 30    11 58 39.8 +18 31 23   0.1046  1.0951   156.0    21.8    21.1
    ...
    2016 04 05    11 18 25.7 +03 33 40   0.07541 1.0686   153.6    24.6    20.5
    2016 04 06    11 09 26.0 -00 04 48   0.07172 1.0644   151.6    26.6    20.4
    2016 04 07    10 59 36.1 -04 05 37   0.06850 1.0603   148.9    29.2    20.4
    ...
    2016 04 13    09 38 47.9 -32 57 36   0.06190 1.0374   122.6    54.5    20.8
    ...
    2016 04 21    06 58 04.9 -56 56 03   0.08561 1.0119    92.2    82.9    22.4
    ...
    2016 05 06    03 49 15.5 -58 35 31   0.1627  0.9823    76.0    94.7    24.2
    
    A. U. Tomatic                (C) Copyright 2016 MPC           M.P.E.C. 2016-G100
    

    Read MPEC 2016-G99 Read MPEC 2016-G101


    MPEC number:

    Enter an MPEC number in one of the following forms:

    • 1997-B01 (the full form)
    • J97B01 (the packed version of the full form)
    • B01 (the abbreviated form)